Volver al catálogo

STARLINK-37636

ActivoComunicacionesSSO
NORAD 69143·PAYLOAD·🇺🇸 United States

Lanzado May 20, 2026 desde Vandenberg Space Force Base

Loading…

Próximos Pases (próximas 24 horas)

TLE

ActualizadoSource: CelesTrak SupGP

Época: Sep 15, 2026, 02:48 UTC

1 69143C 26110V   26258.11715278 -.00216780  00000+0 -67215-2 0  2584
2 69143  97.2850  93.3041 0001637  89.4000 300.7174 15.33585264    19

Sigue STARLINK-37636 en tiempo real con AllMySat

Download on the App Store